Hourly Data Report for September 02, 2020

TORONTO CITY
ONTARIO
Current Station Operator: ECCC - MSC

43°40'00.000" N
79°24'00.000" W
112.50 m
6158355
71508
XTO

Download Data

Hourly Data (September 2020)
Hourly Data Report for September 2, 2020
TIME
LST
Temp Definition
°C
Dew Point Definition
°C
Rel Hum Definition
%
Precip. Amount Definition
mm

Wind Dir Definition
10's deg

Wind Spd Definition
km/h
Visibility Definition
km
Stn Press Definition
kPa
Hmdx Definition


Wind Chill Definition


Weather Definition


00:00 22.4 18.2 77 0.0       99.75 29   LegendNANA
01:00 21.4 18.7 85 0.6       99.68 28   LegendNANA
02:00 21.1 19.1 88 2.3       99.58 28   LegendNANA
03:00 21.0 19.1 89 0.0       99.50 28   LegendNANA
04:00 21.0 19.0 88 0.0       99.43 28   LegendNANA
05:00 21.4 19.2 87 0.0       99.35 28   LegendNANA
06:00 21.5 19.1 86 0.0       99.33 28   LegendNANA
07:00 22.3 19.4 84 0.0       99.26 29   LegendNANA
08:00 22.5 19.3 82 0.0       99.24 30   LegendNANA
09:00 22.5 20.1 86 0.5       99.16 30   LegendNANA
10:00 23.7 20.5 82 0.0       99.15 32   LegendNANA
11:00 24.1 19.3 74 0.0       99.10 31   LegendNANA
12:00 25.7 19.2 68 0.0       99.04 33   LegendNANA
13:00 26.5 18.9 63 0.0       99.00 33   LegendNANA
14:00 27.3 17.3 54 0.2       99.01 33   LegendNANA
15:00 26.7 17.0 55 0.0       99.03 32   LegendNANA
16:00 26.8 13.5 44 0.0       99.08 30   LegendNANA
17:00 26.3 12.0 41 0.0       99.14 29   LegendNANA
18:00 25.8 9.6 36 0.0       99.24 27   LegendNANA
19:00 24.5 10.1 40 0.0       99.34 26   LegendNANA
20:00 23.4 11.0 46 0.0       99.44 25   LegendNANA
21:00 21.3 12.1 56 0.0       99.52     LegendNANA
22:00 20.3 12.2 60 0.0       99.57     LegendNANA
23:00 19.7 12.5 63 0.0       99.61     LegendNANA

Notes on Data Quality.

Legend

  • E = Estimated
  • M = Missing
  • NA = Not Available*
  • [empty] = Indicates an unobserved value
Date modified: